Inquirer Daily News

Weather

Get conditions and forecasts for any City, State, ZIP code or Country:  
Northeast Philadelphia, PA
on Friday, April 13, 2012

Friday
Previous Day Next Day
Daily Summary
 ActualAverage (KTTN)Record (KTTN)
Temperature
Mean Temperature °F 50°F  
Max Temperature 63°F 61°F 85°F (1977)
Min Temperature 39°F 40°F 25°F (1940)
Degree Days
Heating Degree Days 14 15  
Month to date heating degree days 217  
Since 1 July heating degree days 4763  
Cooling Degree Days 0 0  
Month to date cooling degree days 0  
Year to date cooling degree days 0  
Growing Degree Days1 (Base °F )  
Moisture
Dew Point 27°F   
Average Humidity 40    
Maximum Humidity 60    
Minimum Humidity 24    
Precipitation
Precipitation 0.01 in 0.13 in 1.63 in (2004)
Month to date precipitation 1.73  
Year to date precipitation 11.34  
Wind
Wind Speed 8 mph   
Max Wind Speed 13 mph   
Max Gust Speed 17 mph   
Visibility 10 miles   
Events     

Key: T is trace of precipitation, MM is missing value
Source: NWS Daily Summary
Time(EDT)TemperatureDew PointHumidity Pressure Visibility Wind DirectionWind SpeedGust SpeedPrecipitationEvents Conditions
12:54 AM 46.0°F 26.1°F 46% 30.18 in 10.0 miles NNW 8.1 mph - N/A   Clear
1:54 AM 45.0°F 27.0°F 49% 30.18 in 10.0 miles NNW 9.2 mph - N/A   Mostly Cloudy
2:54 AM 43.0°F 26.1°F 51% 30.17 in 10.0 miles NNW 5.8 mph - N/A   Clear
3:54 AM 42.1°F 26.1°F 53% 30.17 in 10.0 miles NNW 5.8 mph - N/A   Clear
4:54 AM 41.0°F 26.1°F 55% 30.17 in 10.0 miles NW 5.8 mph - N/A   Clear
5:54 AM 39.9°F 27.0°F 60% 30.19 in 10.0 miles WNW 6.9 mph - N/A   Clear
6:54 AM 39.9°F 27.0°F 60% 30.21 in 10.0 miles WNW 5.8 mph - N/A   Clear
7:54 AM 44.1°F 28.0°F 53% 30.24 in 10.0 miles NW 8.1 mph - N/A   Clear
8:54 AM 48.9°F 28.9°F 46% 30.25 in 10.0 miles North 8.1 mph - 0.01 in   Clear
9:54 AM 53.1°F 30.9°F 43% 30.25 in 10.0 miles NNW 10.4 mph - N/A   Clear
10:54 AM 54.0°F 30.0°F 40% 30.25 in 10.0 miles NNW 9.2 mph - N/A   Clear
11:54 AM 57.0°F 28.9°F 34% 30.25 in 10.0 miles NW 12.7 mph - N/A   Scattered Clouds
12:54 PM 57.9°F 27.0°F 31% 30.23 in 10.0 miles NNE 9.2 mph - N/A   Clear
1:54 PM 60.1°F 26.1°F 27% 30.22 in 10.0 miles North 6.9 mph 17.3 mph N/A   Clear
2:54 PM 61.0°F 27.0°F 27% 30.19 in 10.0 miles Variable 5.8 mph - N/A   Clear
3:54 PM 62.1°F 26.1°F 25% 30.17 in 10.0 miles Variable 6.9 mph - N/A   Clear
4:54 PM 63.0°F 25.0°F 24% 30.17 in 10.0 miles NNW 8.1 mph - N/A   Clear
5:54 PM 63.0°F 26.1°F 25% 30.17 in 10.0 miles West 9.2 mph - N/A   Clear
6:54 PM 61.0°F 26.1°F 26% 30.17 in 10.0 miles West 10.4 mph - N/A   Clear
7:54 PM 57.9°F 25.0°F 28% 30.18 in 10.0 miles West 6.9 mph - N/A   Clear
8:54 PM 55.0°F 27.0°F 34% 30.20 in 10.0 miles WSW 6.9 mph - N/A   Clear
9:54 PM 53.1°F 28.0°F 38% 30.20 in 10.0 miles WSW 8.1 mph - N/A   Clear
10:54 PM 52.0°F 28.0°F 40% 30.20 in 10.0 miles WSW 5.8 mph - N/A   Clear
11:54 PM 51.1°F 28.0°F 41% 30.21 in 10.0 miles WSW 4.6 mph - N/A   Clear
Astronomy
Sunrise:06:24 AM (EDT) Moon Rise:02:06 AM (EDT)4/13
Sunset:07:37 PM (EDT) Moon Set:12:23 PM (EDT)4/13
Moon Phase
Apr. 13 Apr. 21 Apr. 29 May. 05 May. 12

Copyright © 2014 The Weather Underground, Inc.